Location: Unspecified
(0.0000°N, 0.0000°E)
Time: 21:09:08
(UTC+00:00)

Tiros 1 - Pass Details

Date: 21 October 2021
Orbit: 630 x 664 km, 48.4° (Epoch: 04 December)

Event Time Altitude Azimuth Distance (km) Brightness Sun altitude
Rises 19:44:14 0° 323° (NW) 2,900 10.8 -29.3°
Reaches altitude 10° 19:46:33 10° 325° (NW) 1,994 9.9 -29.9°
Enters shadow 19:47:23 15° 326° (NW) 1,672 9.4 -30.1°
Maximum altitude 19:51:08 79° 52° (NE) 641 - -31.0°
Drops below altitude 10° 19:55:44 10° 138° (SE) 2,004 - -32.1°
Sets 19:58:04 0° 139° (SE) 2,915 - -32.7°
